Regional Weather Roundup
Issued by NWS

Home | Current Version | Previous Version | Graphics & Text | Print | Product List | Glossary On
Versions: 1 2 3 4 5 6 7 8 9 10 11 12 13 14 15 16 17 18 19 20 21 22 23 24 25 26 27
000
ASUS45 KBOU 220806
RWRCO

WEATHER ROUNDUP FOR COLORADO
NATIONAL WEATHER SERVICE DENVER/BOULDER CO
200 AM MDT TUE APR 22 2014

NOTE: "FAIR" INDICATES FEW OR NO CLOUDS BELOW 12000 FEET WITH NO
SIGNIFICANT WEATHER AND/OR OBSTRUCTIONS TO VISIBILITY.

COZ001>005-013-030-031-220900-
...NORTHWEST COLORADO...

CITY           SKY/WX    TMP DP  RH WIND       PRES   REMARKS
CRAIG          PTCLDY    39  32  76 CALM      30.10F
HAYDEN         PTCLDY    45  27  49 E16       30.14F
MEEKER         PTCLDY    41  31  67 NE5       30.12F
MOUNT WERNER   PTCLDY    43  14  31 S14       30.32F
STEAMBOAT SPGS PTCLDY    41  24  50 CALM      30.15F
WALDEN         CLEAR     30  23  74 SE7       30.20F WCI  23
$$

COZ006>008-011-220900-
...WEST CENTRAL VALLEYS...

CITY           SKY/WX    TMP DP  RH WIND       PRES   REMARKS
GRAND JUNCTION PTCLDY    57  30  35 SE16      30.03F
MONTROSE       CLEAR     52  29  41 SE8       30.13F
EAGLE          CLEAR     39  28  65 MISG      30.20F
RIFLE          CLEAR     45  31  58 CALM      30.11F
DELTA          NOT AVBL
NUCLA          NOT AVBL
$$

COZ017>023-064>068-220900-
...SOUTHWEST COLORADO...

CITY           SKY/WX    TMP DP  RH WIND       PRES   REMARKS
DURANGO        PTCLDY    45  26  47 N3        30.19F
CORTEZ         CLEAR     39  27  62 NE3       30.14S
PAGOSA SPRINGS PTCLDY    39  25  55 CALM      30.26F
TELLURIDE      NOT AVBL
WOLF CREEK PAS CLEAR     34  21  60 SW22G29   30.43F WCI  22
$$

COZ009-010-012-014-032>034-037-058>063-220900-
...CENTRAL COLORADO...

CITY           SKY/WX    TMP DP  RH WIND       PRES   REMARKS
ASPEN          CLEAR     39  27  62 SW8       30.21F
BUENA VISTA    PTCLDY    35  29  80 W5        30.28F WCI  30
COPPER MTN     PTCLDY    37  21  52 S15G21    30.41F
BERTHOUD PASS  FAIR      30  21  69 W24G30    30.40F WCI  16
COTTONWOOD PAS PTCLDY    41  27  56 CALM      30.33F
GUNNISON       CLEAR     37  25  60 N5        30.29F
KREMMLING      PTCLDY    34  27  75 CALM      30.23F
LEADVILLE      PTCLDY    29  22  75 NE7       30.33F WCI  22
MONARCH PASS   CLEAR     34  19  55 SW16      30.52F WCI  23
SALIDA         PTCLDY    40  31  69 SW6       30.34F
SUNLIGHT       CLEAR     39  28  65 CALM      30.35F
WILKERSON PASS PTCLDY    32  28  86 SW8G17    30.39F WCI  25
$$

COZ069>075-220900-
...SAN LUIS VALLEY/SANGRE DE CRISTO MOUNTAINS...

CITY           SKY/WX    TMP DP  RH WIND       PRES   REMARKS
ALAMOSA        PTCLDY    40  33  76 S7        30.24F
LA VETA PASS   PTCLDY    36  32  87 SW9       30.34F
SAGUACHE       CLEAR     41  23  48 N12       30.27F
$$

COZ035-036-038>040-220900-
...NORTHERN COLORADO FRONT RANGE...

CITY           SKY/WX    TMP DP  RH WIND       PRES   REMARKS
DENVER INTL AP PTCLDY    54  31  41 S22       30.08F
DMNS CITY PARK   N/A     56  32  40 S13       30.08F
AURORA         PTCLDY    54  32  43 S22       30.10F
FRONT RANGE AP NOT AVBL
ERIE MUNI ARPT CLEAR     44  40  86 CALM      30.08F
BOULDER MUN AP CLEAR     52  34  50 CALM      30.08F
CENTENNIAL     PTCLDY    51  30  44 S14       30.12F
BROOMFIELD     CLEAR     50  37  62 SW3       30.10F
FORT COLLINS   PTCLDY    45  36  70 N8        30.09F
LONGMONT       NOT AVBL
$$

COZ041-046-047-076>085-087-088-220900-
...PIKES PEAK/PALMER DIVIDE AND SOUTHERN FOOTHILLS...

CITY           SKY/WX    TMP DP  RH WIND       PRES   REMARKS
COLO. SPRINGS  PTCLDY    43  31  62 E5        30.20F
A. F. ACADEMY  PTCLDY    41  31  66 N5        30.20F
ELLICOTT       NOT AVBL
FALCON         PTCLDY    42  31  64 CALM      30.23F
FORT CARSON    PTCLDY    43  31  63 N3        30.17F
LIMON          CLEAR     43  32  65 SE8       30.17F
MONUMENT HILL  CLEAR     43  32  65 S13       30.19F
TRINIDAD       PTCLDY    52  41  66 W14       30.18F
$$

COZ042>045-048>051-090-091-220900-
...NORTHEAST COLORADO...

CITY           SKY/WX    TMP DP  RH WIND       PRES   REMARKS
GREELEY ARPT   MOCLDY    45  32  61 SE6       30.08F
AKRON          PTCLDY    50  31  48 S17       30.12F
BURLINGTON     CLEAR     44  31  60 S13       30.17F
WRAY           CLEAR     50  32  49 SE12      30.15F
STERLING       NOT AVBL
HOLYOKE        NOT AVBL
FORT MORGAN    NOT AVBL
$$

COZ086-089-092>099-220900-
...SOUTHEAST COLORADO...

CITY           SKY/WX    TMP DP  RH WIND       PRES   REMARKS
PUEBLO         MOCLDY    48  37  65 NE5       30.13F
LA JUNTA       PTCLDY    53  39  59 SE9       30.15F
LAMAR          CLEAR     49  36  61 NE3       30.14F
SPRINGFIELD      N/A     45  40  82 SW3       30.19F
$$



USA.gov is the U.S. government's official web portal to all federal, state and local government web resources and services.